TimeEDT,TemperatureF,Dew PointF,Humidity,Sea Level PressureIn,VisibilityMPH,Wind Direction,Wind SpeedMPH,Gust SpeedMPH,PrecipitationIn,Events,Conditions,WindDirDegrees,DateUTC
12:42 AM,71.6,69.8,94,30.00,10.0,SW,3.5,-,N/A,,Mostly Cloudy,220,2013-08-01 04:42:00
12:53 AM,71.1,69.1,93,29.97,10.0,SSW,4.6,-,N/A,,Mostly Cloudy,210,2013-08-01 04:53:00
1:32 AM,71.6,69.8,94,29.98,10.0,SW,4.6,-,N/A,,Overcast,230,2013-08-01 05:32:00
1:53 AM,72.0,70.0,93,29.94,10.0,WSW,4.6,-,N/A,,Overcast,240,2013-08-01 05:53:00
2:01 AM,71.6,69.8,94,29.97,10.0,SW,4.6,-,N/A,,Overcast,230,2013-08-01 06:01:00
2:39 AM,71.6,69.8,94,29.97,10.0,SSW,3.5,-,N/A,,Overcast,210,2013-08-01 06:39:00
2:53 AM,72.0,70.0,93,29.94,10.0,SSW,4.6,-,N/A,,Overcast,210,2013-08-01 06:53:00
3:31 AM,71.6,69.8,94,29.97,10.0,SW,4.6,-,N/A,,Overcast,220,2013-08-01 07:31:00
3:38 AM,71.6,69.8,94,29.97,10.0,SSW,3.5,-,N/A,,Overcast,210,2013-08-01 07:38:00
3:53 AM,72.0,70.0,93,29.93,10.0,SSW,3.5,-,N/A,,Overcast,200,2013-08-01 07:53:00
4:53 AM,73.0,70.0,90,29.93,10.0,WSW,3.5,-,0.00,,Overcast,240,2013-08-01 08:53:00
5:53 AM,72.0,70.0,93,29.93,10.0,WSW,3.5,-,N/A,,Overcast,250,2013-08-01 09:53:00
6:06 AM,71.6,69.8,94,29.96,10.0,Calm,Calm,-,N/A,,Overcast,0,2013-08-01 10:06:00
6:53 AM,72.0,70.0,93,29.94,10.0,SW,4.6,-,N/A,,Overcast,230,2013-08-01 10:53:00
7:16 AM,71.6,69.8,94,29.97,1.8,SW,6.9,-,0.00,Rain,Light Rain,230,2013-08-01 11:16:00
7:43 AM,71.6,71.6,100,29.98,3.0,WSW,6.9,-,0.00,,Light Drizzle,240,2013-08-01 11:43:00
7:53 AM,73.0,71.1,93,29.96,3.0,WSW,6.9,-,0.00,Rain,Light Rain,250,2013-08-01 11:53:00
8:29 AM,73.4,71.6,94,29.98,2.0,West,6.9,-,0.00,Rain,Rain,260,2013-08-01 12:29:00
8:31 AM,73.4,71.6,94,29.98,1.5,WSW,6.9,-,0.01,Rain,Heavy Rain,250,2013-08-01 12:31:00
8:39 AM,71.6,71.6,100,29.98,3.0,WSW,5.8,-,0.13,Rain,Light Rain,250,2013-08-01 12:39:00
8:53 AM,73.0,71.1,93,29.96,3.0,West,5.8,-,0.13,,Overcast,260,2013-08-01 12:53:00
9:04 AM,71.6,71.6,100,29.99,4.0,WNW,5.8,-,N/A,,Overcast,290,2013-08-01 13:04:00
9:29 AM,73.4,69.8,88,29.99,5.0,WNW,4.6,-,N/A,,Overcast,290,2013-08-01 13:29:00
9:53 AM,73.9,71.1,91,29.96,7.0,West,4.6,-,N/A,,Overcast,270,2013-08-01 13:53:00
10:53 AM,77.0,71.1,82,29.96,10.0,NW,3.5,-,N/A,,Mostly Cloudy,310,2013-08-01 14:53:00
11:13 AM,75.2,71.6,89,29.99,10.0,North,-9999.0,-,N/A,,Scattered Clouds,0,2013-08-01 15:13:00
11:53 AM,79.0,71.1,77,29.96,10.0,NNW,6.9,-,N/A,,Scattered Clouds,340,2013-08-01 15:53:00
12:53 PM,80.1,66.0,62,29.97,10.0,NNW,6.9,-,N/A,,Scattered Clouds,340,2013-08-01 16:53:00
1:53 PM,82.9,66.9,58,29.96,10.0,NNW,8.1,-,N/A,,Mostly Cloudy,340,2013-08-01 17:53:00
2:53 PM,82.4,66.2,58,29.94,10.0,WNW,10.4,-,N/A,,Scattered Clouds,300,2013-08-01 18:53:00
3:53 PM,84.9,66.0,53,29.93,10.0,North,9.2,-,N/A,,Scattered Clouds,360,2013-08-01 19:53:00
4:53 PM,84.0,66.0,55,29.93,10.0,North,8.1,18.4,N/A,,Scattered Clouds,360,2013-08-01 20:53:00
5:53 PM,84.0,64.9,53,29.92,10.0,NNW,3.5,-,N/A,,Partly Cloudy,340,2013-08-01 21:53:00
6:53 PM,82.9,64.9,54,29.92,10.0,North,4.6,-,N/A,,Partly Cloudy,10,2013-08-01 22:53:00
7:53 PM,81.0,66.0,60,29.93,10.0,North,6.9,-,0.00,,Mostly Cloudy,360,2013-08-01 23:53:00
8:53 PM,78.1,66.0,66,29.94,10.0,North,5.8,-,N/A,,Scattered Clouds,360,2013-08-02 00:53:00
9:53 PM,75.9,66.0,71,29.96,10.0,NNE,3.5,-,N/A,,Scattered Clouds,20,2013-08-02 01:53:00
10:53 PM,72.0,66.0,81,29.97,10.0,Calm,Calm,-,N/A,,Mostly Cloudy,0,2013-08-02 02:53:00
11:53 PM,73.0,66.0,79,29.98,10.0,Calm,Calm,-,N/A,,Partly Cloudy,0,2013-08-02 03:53:00